ASY543 YWLM-YAMB

Flight info

Callsign ASY543
Flight time N/A
Altitude 25000
Route UBSON DCT YBOK DCT SOOTY
Aircraft A332/H-SADE1E2E3GHIJ3J5M1P2RWXY/LB2D1

Departure

Time 2026-04-19 05:55
Airport Newcastle Airport (YWLM)

Arrival

Time N/A
Airport RAAF Base Amberley (YAMB)
Time Latitude Longitude Altitude Speed Heading
2026-04-19 05:21 -32.79539 151.84159 22 ft 0 kts 54°
2026-04-19 05:42 -32.79542 151.84154 35 ft 4 kts 54°
2026-04-19 05:42 -32.79555 151.84129 35 ft 4 kts 96°
2026-04-19 05:43 -32.79556 151.84117 34 ft 0 kts 132°
2026-04-19 05:44 -32.79563 151.84126 34 ft 3 kts 134°
2026-04-19 05:44 -32.79592 151.84153 35 ft 7 kts 143°
2026-04-19 05:44 -32.79644 151.84181 35 ft 8 kts 175°
2026-04-19 05:45 -32.79665 151.84165 35 ft 0 kts 218°
2026-04-19 05:45 -32.79673 151.84157 33 ft 3 kts 220°
2026-04-19 05:45 -32.79696 151.84123 35 ft 7 kts 233°
2026-04-19 05:45 -32.79733 151.84063 35 ft 11 kts 232°
2026-04-19 05:46 -32.79790 151.84065 35 ft 8 kts 144°
2026-04-19 05:46 -32.79840 151.84123 35 ft 12 kts 131°
2026-04-19 05:46 -32.79901 151.84205 34 ft 15 kts 131°
2026-04-19 05:46 -32.79976 151.84309 33 ft 18 kts 130°
2026-04-19 05:47 -32.80063 151.84430 33 ft 20 kts 130°
2026-04-19 05:47 -32.80157 151.84565 32 ft 22 kts 131°
2026-04-19 05:47 -32.80261 151.84709 32 ft 24 kts 130°
2026-04-19 05:47 -32.80372 151.84831 31 ft 12 kts 171°
2026-04-19 05:48 -32.80398 151.84822 31 ft 0 kts 209°
2026-04-19 05:52 -32.80401 151.84820 31 ft 2 kts 209°
2026-04-19 05:52 -32.80425 151.84801 31 ft 6 kts 214°
2026-04-19 05:52 -32.80461 151.84753 31 ft 9 kts 242°
2026-04-19 05:53 -32.80448 151.84677 31 ft 11 kts 305°
2026-04-19 05:53 -32.80430 151.84654 31 ft 0 kts 312°
2026-04-19 05:54 -32.80389 151.84593 30 ft 40 kts 309°
2026-04-19 05:54 -32.80017 151.84073 35 ft 123 kts 310°
2026-04-19 05:54 -32.79322 151.83108 210 ft 170 kts 309°
2026-04-19 05:55 -32.78490 151.82026 660 ft 184 kts 309°
2026-04-19 05:55 -32.77509 151.81011 1225 ft 188 kts 334°
2026-04-19 05:55 -32.76278 151.80866 1816 ft 183 kts
2026-04-19 05:55 -32.74972 151.81135 2156 ft 198 kts 11°
2026-04-19 05:56 -32.73584 151.81453 2512 ft 206 kts 11°
2026-04-19 05:56 -32.72165 151.81755 2927 ft 208 kts
2026-04-19 05:56 -32.70733 151.82037 3354 ft 208 kts
2026-04-19 05:56 -32.69299 151.82302 3747 ft 214 kts
2026-04-19 05:57 -32.67729 151.82580 3991 ft 241 kts
2026-04-19 05:57 -32.65997 151.82885 4373 ft 263 kts
2026-04-19 05:57 -32.64102 151.83220 4683 ft 286 kts
2026-04-19 05:57 -32.62088 151.83581 4919 ft 308 kts
2026-04-19 05:58 -32.59902 151.83977 5140 ft 330 kts
2026-04-19 05:58 -32.57559 151.84401 5344 ft 350 kts
2026-04-19 05:58 -32.55093 151.84845 5553 ft 368 kts
2026-04-19 05:58 -32.52507 151.85308 5922 ft 379 kts
2026-04-19 05:59 -32.49882 151.85778 6463 ft 384 kts
2026-04-19 05:59 -32.47224 151.86254 7065 ft 387 kts
2026-04-19 05:59 -32.45449 151.86570 7407 ft 390 kts
2026-04-19 05:59 -32.42753 151.87051 7993 ft 393 kts
2026-04-19 06:00 -32.40034 151.87504 8534 ft 397 kts
2026-04-19 06:00 -32.37279 151.87926 9113 ft 401 kts
2026-04-19 06:00 -32.34488 151.88345 9684 ft 405 kts
2026-04-19 06:00 -32.31682 151.88771 10224 ft 409 kts
2026-04-19 06:01 -32.28852 151.89205 10760 ft 412 kts
2026-04-19 06:01 -32.25999 151.89647 11295 ft 415 kts
2026-04-19 06:01 -32.23126 151.90092 11812 ft 418 kts
2026-04-19 06:01 -32.20225 151.90542 12220 ft 422 kts
2026-04-19 06:02 -32.17305 151.90995 12039 ft 421 kts
2026-04-19 06:02 -32.14405 151.91444 12026 ft 420 kts
2026-04-19 06:02 -32.11550 151.91886 12021 ft 420 kts
2026-04-19 06:02 -32.08643 151.92335 12023 ft 420 kts
2026-04-19 06:03 -32.05741 151.92783 12020 ft 420 kts
2026-04-19 06:03 -32.02838 151.93231 12023 ft 420 kts
2026-04-19 06:03 -31.99931 151.93680 12022 ft 420 kts
2026-04-19 06:03 -31.97033 151.94126 12019 ft 420 kts
2026-04-19 06:04 -31.94139 151.94572 12017 ft 420 kts
2026-04-19 06:04 -31.91265 151.95014 12019 ft 420 kts
2026-04-19 06:04 -31.88364 151.95461 12016 ft 420 kts
2026-04-19 06:04 -31.85464 151.95906 12016 ft 421 kts
2026-04-19 06:05 -31.82568 151.96351 12012 ft 419 kts
2026-04-19 06:05 -31.79675 151.96795 12010 ft 419 kts
2026-04-19 06:05 -31.76789 151.97240 12009 ft 419 kts
2026-04-19 06:05 -31.73891 151.97685 12011 ft 419 kts
2026-04-19 06:06 -31.70992 151.98128 12009 ft 419 kts
2026-04-19 06:06 -31.68103 151.98570 12011 ft 419 kts
2026-04-19 06:06 -31.65220 151.99012 12010 ft 418 kts
2026-04-19 06:06 -31.62334 151.99454 12009 ft 419 kts
2026-04-19 06:07 -31.59441 151.99897 12009 ft 418 kts
2026-04-19 06:07 -31.56567 152.00337 12009 ft 418 kts
2026-04-19 06:07 -31.53667 152.00779 12432 ft 421 kts
2026-04-19 06:07 -31.50755 152.01223 13026 ft 423 kts
2026-04-19 06:08 -31.47830 152.01670 13555 ft 426 kts
2026-04-19 06:08 -31.44871 152.02034 14053 ft 429 kts 360°
2026-04-19 06:08 -31.41919 152.01871 14543 ft 431 kts 354°
2026-04-19 06:08 -31.38882 152.01636 15065 ft 434 kts 354°
2026-04-19 06:09 -31.35890 152.01402 15553 ft 438 kts 354°
2026-04-19 06:09 -31.32841 152.01169 16071 ft 440 kts 354°
2026-04-19 06:09 -31.29777 152.00939 16589 ft 444 kts 354°
2026-04-19 06:09 -31.26681 152.00711 17106 ft 447 kts 354°
2026-04-19 06:10 -31.23565 152.00482 17615 ft 450 kts 354°
2026-04-19 06:10 -31.20428 152.00253 18141 ft 454 kts 354°
2026-04-19 06:10 -31.17272 152.00022 18605 ft 457 kts 354°
2026-04-19 06:10 -31.14076 151.99788 19085 ft 460 kts 354°
2026-04-19 06:11 -31.10876 151.99554 19577 ft 462 kts 354°
2026-04-19 06:11 -31.07653 151.99320 20021 ft 466 kts 353°
2026-04-19 06:11 -31.04403 151.99083 20532 ft 468 kts 353°
2026-04-19 06:12 -30.97854 151.98606 21497 ft 474 kts 353°
2026-04-19 06:12 -30.94557 151.98365 21983 ft 477 kts 353°
2026-04-19 06:12 -30.91233 151.98124 22482 ft 479 kts 353°
2026-04-19 06:12 -30.87897 151.97880 22970 ft 481 kts 353°
2026-04-19 06:13 -30.84545 151.97636 23430 ft 484 kts 353°
2026-04-19 06:13 -30.81168 151.97392 23864 ft 487 kts 353°
2026-04-19 06:13 -30.77814 151.97152 24232 ft 491 kts 353°
2026-04-19 06:13 -30.74408 151.96907 24731 ft 491 kts 353°
2026-04-19 06:14 -30.70985 151.96658 25062 ft 494 kts 352°
2026-04-19 06:14 -30.67543 151.96408 25012 ft 495 kts 353°
2026-04-19 06:14 -30.64122 151.96159 24995 ft 493 kts 352°
2026-04-19 06:14 -30.60694 151.95907 24992 ft 495 kts 352°
2026-04-19 06:15 -30.57262 151.95659 24993 ft 494 kts 353°
2026-04-19 06:15 -30.53835 151.95414 24993 ft 494 kts 352°
2026-04-19 06:15 -30.50404 151.95168 24989 ft 494 kts 352°
2026-04-19 06:15 -30.46969 151.94921 24991 ft 494 kts 352°
2026-04-19 06:16 -30.43535 151.94674 24991 ft 494 kts 352°
2026-04-19 06:16 -30.40098 151.94426 24993 ft 495 kts 352°
2026-04-19 06:16 -30.36658 151.94179 24990 ft 494 kts 352°
2026-04-19 06:16 -30.33227 151.93932 24988 ft 494 kts 352°
2026-04-19 06:17 -30.29790 151.93685 24989 ft 494 kts 352°
2026-04-19 06:17 -30.26350 151.93438 24990 ft 495 kts 352°
2026-04-19 06:17 -30.22912 151.93192 24989 ft 495 kts 352°
2026-04-19 06:17 -30.19472 151.92946 24990 ft 495 kts 352°
2026-04-19 06:18 -30.16074 151.92702 24987 ft 496 kts 352°
2026-04-19 06:18 -30.12637 151.92456 24986 ft 495 kts 352°
2026-04-19 06:18 -30.09153 151.92207 24984 ft 494 kts 352°
2026-04-19 06:18 -30.05720 151.91961 24989 ft 494 kts 352°
2026-04-19 06:19 -30.02334 151.91719 24989 ft 494 kts 352°
2026-04-19 06:19 -29.98861 151.91471 24989 ft 494 kts 352°
2026-04-19 06:19 -29.95475 151.91229 24990 ft 493 kts 352°
2026-04-19 06:19 -29.92003 151.90982 24987 ft 493 kts 352°
2026-04-19 06:20 -29.88575 151.90738 24986 ft 493 kts 352°
2026-04-19 06:20 -29.85196 151.90498 24986 ft 492 kts 352°
2026-04-19 06:20 -29.81776 151.90254 24987 ft 493 kts 352°
2026-04-19 06:20 -29.78353 151.90011 24988 ft 492 kts 352°
2026-04-19 06:21 -29.74932 151.89769 24986 ft 492 kts 352°
2026-04-19 06:21 -29.71512 151.89526 24984 ft 492 kts 352°
2026-04-19 06:21 -29.68098 151.89285 24985 ft 492 kts 352°
2026-04-19 06:21 -29.64681 151.89042 24983 ft 491 kts 352°
2026-04-19 06:22 -29.61272 151.88800 24985 ft 491 kts 352°
2026-04-19 06:22 -29.57855 151.88558 24984 ft 491 kts 352°
2026-04-19 06:22 -29.54441 151.88316 24984 ft 491 kts 352°
2026-04-19 06:22 -29.51028 151.88075 24982 ft 491 kts 352°
2026-04-19 06:23 -29.47614 151.87833 24979 ft 491 kts 352°
2026-04-19 06:23 -29.44204 151.87592 24977 ft 491 kts 352°
2026-04-19 06:23 -29.40803 151.87353 24980 ft 489 kts 352°
2026-04-19 06:23 -29.37453 151.87121 24977 ft 473 kts 352°
2026-04-19 06:24 -29.34238 151.86901 24976 ft 455 kts 351°
2026-04-19 06:24 -29.31118 151.86685 24980 ft 444 kts 351°
2026-04-19 06:24 -29.28022 151.86462 24981 ft 450 kts 351°
2026-04-19 06:24 -29.24881 151.86234 24974 ft 451 kts 351°
2026-04-19 06:25 -29.21789 151.86015 24976 ft 450 kts 351°
2026-04-19 06:25 -29.18624 151.85791 24976 ft 450 kts 351°
2026-04-19 06:25 -29.15536 151.85576 24976 ft 450 kts 351°
2026-04-19 06:25 -29.12372 151.85355 24983 ft 450 kts 351°
2026-04-19 06:26 -29.09247 151.85135 24982 ft 450 kts 351°
2026-04-19 06:26 -29.06117 151.84915 24982 ft 450 kts 351°
2026-04-19 06:26 -29.03037 151.84699 24976 ft 450 kts 351°
2026-04-19 06:26 -28.99910 151.84480 24976 ft 450 kts 351°
2026-04-19 06:27 -28.96792 151.84262 24977 ft 450 kts 351°
2026-04-19 06:27 -28.93661 151.84044 24983 ft 450 kts 351°
2026-04-19 06:27 -28.90533 151.83828 24978 ft 449 kts 351°
2026-04-19 06:27 -28.87418 151.83609 24976 ft 449 kts 351°
2026-04-19 06:28 -28.84288 151.83389 24978 ft 449 kts 351°
2026-04-19 06:28 -28.81170 151.83170 24976 ft 449 kts 351°
2026-04-19 06:28 -28.78058 151.82953 24977 ft 449 kts 351°
2026-04-19 06:28 -28.74937 151.82735 24972 ft 449 kts 351°
2026-04-19 06:29 -28.71817 151.82518 24971 ft 449 kts 351°
2026-04-19 06:29 -28.68710 151.82302 24972 ft 449 kts 351°
2026-04-19 06:29 -28.65578 151.82084 24974 ft 449 kts 351°
2026-04-19 06:29 -28.62456 151.81867 24972 ft 449 kts 351°
2026-04-19 06:30 -28.59346 151.81651 24973 ft 448 kts 351°
2026-04-19 06:30 -28.56229 151.81435 24970 ft 449 kts 351°
2026-04-19 06:30 -28.53113 151.81219 24970 ft 448 kts 351°
2026-04-19 06:30 -28.49997 151.81003 24969 ft 449 kts 351°
2026-04-19 06:31 -28.46882 151.80787 24964 ft 448 kts 351°
2026-04-19 06:31 -28.43772 151.80572 24964 ft 448 kts 351°
2026-04-19 06:31 -28.40658 151.80356 24963 ft 448 kts 351°
2026-04-19 06:31 -28.37545 151.80141 24963 ft 448 kts 351°
2026-04-19 06:32 -28.34429 151.79926 24961 ft 448 kts 351°
2026-04-19 06:32 -28.31324 151.79712 24961 ft 447 kts 351°
2026-04-19 06:32 -28.28212 151.79496 24963 ft 448 kts 351°
2026-04-19 06:32 -28.25106 151.79281 24947 ft 446 kts 351°
2026-04-19 06:33 -28.22045 151.79071 24687 ft 444 kts 351°
2026-04-19 06:33 -28.18967 151.78859 24299 ft 443 kts 351°
2026-04-19 06:33 -28.15898 151.78648 23880 ft 439 kts 351°
2026-04-19 06:33 -28.12856 151.78439 23311 ft 436 kts 351°
2026-04-19 06:34 -28.09840 151.78231 22706 ft 433 kts 351°
2026-04-19 06:34 -28.06836 151.78024 22114 ft 430 kts 351°
2026-04-19 06:34 -28.03882 151.77820 21556 ft 427 kts 352°
2026-04-19 06:34 -28.00904 151.77614 20962 ft 424 kts 352°
2026-04-19 06:35 -27.97966 151.77411 20398 ft 421 kts 352°
2026-04-19 06:35 -27.95054 151.77211 19833 ft 418 kts 352°
2026-04-19 06:35 -27.92164 151.77011 19283 ft 415 kts 353°
2026-04-19 06:35 -27.89291 151.76813 18720 ft 412 kts 353°
2026-04-19 06:36 -27.86438 151.76616 18134 ft 409 kts 353°
2026-04-19 06:36 -27.83609 151.76422 17536 ft 406 kts 353°
2026-04-19 06:36 -27.80800 151.76230 16944 ft 402 kts 354°
2026-04-19 06:36 -27.78020 151.76040 16340 ft 399 kts 354°
2026-04-19 06:37 -27.75259 151.75852 15763 ft 395 kts 354°
2026-04-19 06:37 -27.72524 151.75665 15178 ft 392 kts 354°
2026-04-19 06:37 -27.69807 151.75478 14607 ft 390 kts 354°
2026-04-19 06:37 -27.67106 151.75293 14034 ft 387 kts 354°
2026-04-19 06:38 -27.64427 151.75109 13434 ft 384 kts 354°
2026-04-19 06:38 -27.61819 151.74932 13092 ft 377 kts 354°
2026-04-19 06:38 -27.59176 151.74751 13003 ft 383 kts 354°
2026-04-19 06:38 -27.56516 151.74569 12998 ft 383 kts 354°
2026-04-19 06:39 -27.53860 151.74389 12994 ft 383 kts 354°
2026-04-19 06:39 -27.51204 151.74208 12996 ft 382 kts 355°
2026-04-19 06:39 -27.48549 151.74028 12997 ft 382 kts 354°
2026-04-19 06:39 -27.45889 151.73847 12995 ft 383 kts 355°
2026-04-19 06:40 -27.43232 151.73666 12990 ft 382 kts 354°
2026-04-19 06:40 -27.40577 151.73486 12966 ft 381 kts 355°
2026-04-19 06:40 -27.37937 151.73662 12640 ft 382 kts 11°
2026-04-19 06:40 -27.35472 151.74721 12208 ft 379 kts 30°
2026-04-19 06:41 -27.33450 151.76580 11638 ft 375 kts 50°
2026-04-19 06:41 -27.32103 151.79041 11065 ft 367 kts 70°
2026-04-19 06:41 -27.31582 151.81797 10503 ft 358 kts 91°
2026-04-19 06:41 -27.31868 151.84543 9957 ft 350 kts 104°
2026-04-19 06:42 -27.32310 151.87230 9333 ft 347 kts 102°
2026-04-19 06:42 -27.32696 151.89884 9055 ft 344 kts 101°
2026-04-19 06:42 -27.33045 151.92565 8989 ft 346 kts 100°
2026-04-19 06:42 -27.33255 151.94298 8986 ft 328 kts 100°
2026-04-19 06:43 -27.33617 151.97446 8979 ft 285 kts 100°
2026-04-19 06:43 -27.33864 151.99604 8976 ft 280 kts 100°
2026-04-19 06:43 -27.34119 152.01785 8976 ft 280 kts 100°
2026-04-19 06:43 -27.34370 152.03957 8974 ft 280 kts 100°
2026-04-19 06:44 -27.34540 152.05419 8974 ft 280 kts 100°
2026-04-19 06:44 -27.34788 152.07563 8973 ft 280 kts 100°
2026-04-19 06:44 -27.35038 152.09733 8974 ft 279 kts 101°
2026-04-19 06:44 -27.35289 152.11910 8968 ft 281 kts 100°
2026-04-19 06:45 -27.35540 152.14103 8964 ft 282 kts 100°
2026-04-19 06:45 -27.35789 152.16281 8955 ft 283 kts 100°
2026-04-19 06:45 -27.36056 152.18590 8970 ft 312 kts 100°
2026-04-19 06:45 -27.36349 152.21116 8974 ft 340 kts 100°
2026-04-19 06:46 -27.36656 152.23800 8971 ft 350 kts 99°
2026-04-19 06:46 -27.36964 152.26526 8968 ft 350 kts 99°
2026-04-19 06:46 -27.37268 152.29240 8962 ft 350 kts 99°
2026-04-19 06:46 -27.37570 152.31940 8784 ft 346 kts 100°
2026-04-19 06:47 -27.37871 152.34620 8314 ft 345 kts 99°
2026-04-19 06:47 -27.38173 152.37285 7723 ft 342 kts 99°
2026-04-19 06:47 -27.38471 152.39930 7122 ft 339 kts 99°
2026-04-19 06:47 -27.38767 152.42555 6520 ft 336 kts 98°
2026-04-19 06:48 -27.39057 152.45145 5900 ft 332 kts 98°
2026-04-19 06:48 -27.39343 152.47708 5298 ft 328 kts 98°
2026-04-19 06:48 -27.39624 152.50224 4963 ft 318 kts 98°
2026-04-19 06:48 -27.39905 152.52738 4972 ft 327 kts 98°
2026-04-19 06:49 -27.40186 152.55247 4978 ft 326 kts 98°
2026-04-19 06:49 -27.40474 152.57772 4971 ft 326 kts 100°
2026-04-19 06:49 -27.41235 152.60145 4934 ft 321 kts 123°
2026-04-19 06:49 -27.42783 152.61913 4593 ft 318 kts 148°
2026-04-19 06:50 -27.44769 152.62985 3981 ft 316 kts 159°
2026-04-19 06:50 -27.46833 152.63843 3342 ft 312 kts 160°
2026-04-19 06:50 -27.48726 152.64632 2915 ft 261 kts 159°
2026-04-19 06:50 -27.50242 152.65288 2564 ft 209 kts 158°
2026-04-19 06:51 -27.51497 152.65837 2297 ft 192 kts 157°
2026-04-19 06:51 -27.52720 152.66373 2050 ft 187 kts 157°
2026-04-19 06:51 -27.53927 152.66903 1818 ft 186 kts 157°
2026-04-19 06:51 -27.55131 152.67430 1565 ft 186 kts 157°
2026-04-19 06:52 -27.56329 152.67956 1329 ft 185 kts 156°
2026-04-19 06:52 -27.57540 152.68486 1083 ft 188 kts 156°
2026-04-19 06:52 -27.58751 152.69019 845 ft 186 kts 156°
2026-04-19 06:52 -27.59970 152.69553 608 ft 189 kts 155°
2026-04-19 06:53 -27.61166 152.70077 360 ft 181 kts 154°
2026-04-19 06:53 -27.62347 152.70599 127 ft 183 kts 154°
2026-04-19 06:53 -27.63062 152.70940 103 ft 152 kts 143°
2026-04-19 06:53 -27.63308 152.71102 101 ft 106 kts 168°